Location: Newark
(45.0500°N, 0.5014°W)
Time: 07:10:35
(UTC+00:00)

ISS - Visible Passes

Search period start: 27 January 2020 00:00
Search period end: 06 February 2020 00:00
Orbit: 416 x 423 km, 51.6° (Epoch: 27 January)

Date Brightness Start Highest point End Pass type
(mag) Time Alt. Az. Time Alt. Az. Time Alt. Az.
27 Jan -2.5 18:14:27 10° W 18:17:33 33° NNW 18:19:21 20° NE visible
27 Jan -0.5 19:52:03 10° NW 19:52:18 11° NW 19:52:18 11° NW visible
28 Jan -2.9 17:26:40 10° W 17:29:54 41° NNW 17:33:09 10° NE visible
28 Jan -2.0 19:04:24 10° WNW 19:06:44 24° NNW 19:06:44 24° NNW visible
29 Jan -2.2 18:16:40 10° WNW 18:19:35 26° N 18:21:08 19° NE visible
29 Jan -0.5 19:53:52 10° NW 19:54:06 11° NW 19:54:06 11° NW visible
30 Jan -2.1 19:06:18 10° NW 19:08:31 26° NNW 19:08:31 26° NNW visible
31 Jan -2.4 18:18:40 10° NW 18:21:36 26° N 18:22:57 20° NE visible
31 Jan -0.6 19:55:29 10° NW 19:55:55 13° NW 19:55:55 13° NW visible
01 Feb -2.6 19:07:57 10° NW 19:10:23 35° NNW 19:10:23 35° NNW visible
02 Feb -2.8 18:20:23 10° NW 18:23:32 34° NNE 18:24:54 24° ENE visible
02 Feb -0.7 19:57:09 10° WNW 19:57:52 15° WNW 19:57:52 15° WNW visible
03 Feb -3.5 19:09:32 10° WNW 19:12:28 65° WNW 19:12:28 65° WNW visible
04 Feb -3.7 18:21:55 10° NW 18:25:18 60° NNE 18:27:10 23° E visible
04 Feb -0.7 19:59:09 10° W 20:00:09 16° W 20:00:09 16° W visible
05 Feb -2.5 19:11:15 10° WNW 19:14:24 36° SW 19:14:59 33° SSW visible
